loading
|

SCOUT A R/B, 2811

Orbit data source: Space-Track

SCOUT A R/B, 2811 is space debris in LEO originally from a launch on Thu, 18 May 1967 UTC launched from the Air Force Western Test Range (AFWTR). Debris objects in space refer to the collection of defunct objects orbiting the Earth. Examples of debris include non-operational satellites, rocket bodies, and fragments generated from explosions, collisions, or faulty payload assembly.

Loading next visibility...
Loading greatness...
SCOUT A R/B details
Identifier
2811, 1967-048B
Orbit
LEO
Last TLE update1 day ago
Origin
Flag of USNASA LaRC (US)
ManufacturerABL
MissionSpacecraft
Bus & MotorALTAIR, Unknown motor
Mass33 kg wet, 33 kg dry
Launch date (UTC)
1967-05-18 (57 years ago)
Launch vehicleUnknown
Launch site
Air Force Western Test Range (AFWTR)
Object type
Payload
Rocket body
Debris
Shape & HBRCyl, 1.5 m
Radar Cross Section0.687 m², Medium (>0.1 m² and < 1m²)

Expand to show TLE details & history

TLE from 1 day ago
0 SCOUT A R/B
1 02811U 67048B   24280.69825434  .00000254  00000-0  38810-3 0  9998
2 02811  89.6826  10.8944 0018814 349.0543 124.3067 13.49212388823107
Epoch: 2024-10-06T16:45Z
Definitive object data (Epoch: 2024-10-06T16:45:29.174Z)
Latitude66.53758°
Longitude-77.0412°
Altitude1,094.673 km
Speed7.307 km/s
True Right ascension12h 40m 40s
True Declination66° 25' 03"
Sunlit
Object was in daylight at TLE epoch
Predictive object data (real-time)
Latitude-65.96758°
Longitude-75.63949°
Altitude1,102.752 km
Speed7.299 km/s
Apparent Right ascension23h 55m 31s
Apparent Declination-80° 13' 53"
Sunlit
Object is in daylight
Predictive observer data (real-time)
Local Sidereal Time12:27:00
Azimuth177.947° S
Elevation-49.576°
Doppler factor1
Orbital elements
Apogee1,086.226 km
Perigee1,058.192 km
Semi-major axis7,450.346 km
Eccentricity0.0018814
Inclination89.6826°
RAAN10.8944°
Arg. of periapsis349.0543°
True anomaly124.48455°
Mean anomaly124.3067°
Eccentric anomaly124.39565°
Mean motion3.37504 °/min
BSTAR0.0003881
Period106.67 mins
No data available

SCOUT A R/B Visibility forecast

Observer location: 39.9160978°, -105.1181434

SCOUT A R/B is not visible in the next 10 days
Span
Click to sort rows by Start time (UTC) header in descending order
Start Az.
Max El. time (UTC)
Max El. Az.
Max El.
End time (UTC)
End Az.